5 day graph

You are here

Error message

  • Notice: Trying to access array offset on value of type int in DrupalRequestSanitizer::stripDangerousValues() (line 102 of /home/twolittl/public_html/cms/includes/request-sanitizer.inc).
  • Notice: Trying to access array offset on value of type int in DrupalRequestSanitizer::stripDangerousValues() (line 102 of /home/twolittl/public_html/cms/includes/request-sanitizer.inc).
  • Notice: Trying to access array offset on value of type int in DrupalRequestSanitizer::stripDangerousValues() (line 102 of /home/twolittl/public_html/cms/includes/request-sanitizer.inc).
  • Notice: Trying to access array offset on value of type int in DrupalRequestSanitizer::stripDangerousValues() (line 102 of /home/twolittl/public_html/cms/includes/request-sanitizer.inc).
  • Notice: Trying to access array offset on value of type int in DrupalRequestSanitizer::stripDangerousValues() (line 102 of /home/twolittl/public_html/cms/includes/request-sanitizer.inc).
  • Notice: Trying to access array offset on value of type int in DrupalRequestSanitizer::stripDangerousValues() (line 102 of /home/twolittl/public_html/cms/includes/request-sanitizer.inc).
  • Notice: Trying to access array offset on value of type int in DrupalRequestSanitizer::stripDangerousValues() (line 102 of /home/twolittl/public_html/cms/includes/request-sanitizer.inc).
  • Notice: Trying to access array offset on value of type int in DrupalRequestSanitizer::stripDangerousValues() (line 102 of /home/twolittl/public_html/cms/includes/request-sanitizer.inc).
  • Deprecated function: Function get_magic_quotes_gpc() is deprecated in phpMyEdit->get_cgi_var() (line 1773 of /home/twolittl/public_html/phpMyEdit.class.php).
  • Deprecated function: implode(): Passing glue string after array is deprecated. Swap the parameters in drupal_get_feeds() (line 394 of /home/twolittl/public_html/cms/includes/common.inc).

Hive Data

Page: 1 of 16645  Records: 998690

Row Date Time Hive Temp Hive Humidity Outside Temp Outside Humidity Bottom Board Temp Outside Wall Temp Electronics Temp Light Levels inHG Fan Heat Cover Notes
Clear Sorted By: Heat ascending, Electronics Temp ascending, Outside Wall Temp ascending, Row descending
View 722119 Nov 29 2015 7:10:28am 62.06 41 19.04 80 18.5 26.6 33.8 446 29.46 0 0 0 NA
View 722176 Nov 29 2015 8:07:39am 60.8 45 19.04 79 18.05 26.15 35.6 458 29.46 0 0 0 NA
View 722155 Nov 29 2015 7:46:35am 62.06 46 19.04 79 18.5 26.15 35.6 451 29.46 0 0 0 NA
View 722154 Nov 29 2015 7:45:34am 62.06 47 19.04 80 18.5 26.15 35.6 451 29.46 0 0 0 NA
View 722153 Nov 29 2015 7:44:34am 62.06 48 19.04 80 18.5 26.15 35.6 451 29.46 0 0 0 NA
View 722152 Nov 29 2015 7:43:34am 61.88 48 19.04 80 18.5 26.15 35.6 450 29.46 0 0 0 NA
View 722150 Nov 29 2015 7:41:33am 61.7 45 18.86 81 18.5 26.15 35.6 451 29.47 0 0 0 NA
View 722143 Nov 29 2015 7:34:32am 61.52 42 18.68 82 18.5 26.15 35.6 450 29.46 0 0 0 NA
View 722142 Nov 29 2015 7:33:32am 61.52 40 18.68 81 18.5 26.15 35.6 450 29.47 0 0 0 NA
View 722141 Nov 29 2015 7:32:32am 61.52 41 18.68 81 18.5 26.15 35.6 450 29.46 0 0 0 NA
View 722140 Nov 29 2015 7:31:32am 61.7 39 18.68 80 18.5 26.15 35.6 449 29.46 0 0 0 NA
View 722139 Nov 29 2015 7:30:31am 61.7 35 18.68 80 18.5 26.15 35.6 449 29.46 0 0 0 NA
View 722138 Nov 29 2015 7:29:31am 61.88 36 18.68 80 18.5 26.15 35.6 449 29.46 0 0 0 NA
View 722137 Nov 29 2015 7:28:31am 61.88 41 18.68 80 18.5 26.15 35.6 449 29.46 0 0 0 NA
View 722136 Nov 29 2015 7:27:31am 61.88 41 18.68 80 18.5 26.15 35.6 449 29.46 0 0 0 NA
View 722135 Nov 29 2015 7:26:31am 61.88 38 18.68 80 18.5 26.15 35.6 449 29.47 0 0 0 NA
View 722134 Nov 29 2015 7:25:30am 61.88 40 18.68 80 18.5 26.15 35.6 448 29.46 0 0 0 NA
View 722133 Nov 29 2015 7:24:30am 61.88 41 18.68 80 18.5 26.15 35.6 449 29.46 0 0 0 NA
View 722132 Nov 29 2015 7:23:30am 62.06 42 18.86 80 18.5 26.15 35.6 448 29.47 0 0 0 NA
View 722131 Nov 29 2015 7:22:30am 62.06 42 18.68 79 18.5 26.15 35.6 449 29.46 0 0 0 NA
View 722130 Nov 29 2015 7:21:30am 62.06 45 18.86 79 18.5 26.15 35.6 449 29.47 0 0 0 NA
View 722129 Nov 29 2015 7:20:29am 62.06 47 18.86 79 18.5 26.15 35.6 448 29.46 0 0 0 NA
View 722128 Nov 29 2015 7:19:29am 62.06 46 18.86 79 18.5 26.15 35.6 448 29.46 0 0 0 NA
View 722231 Nov 29 2015 9:02:49am 61.52 50 20.66 80 18.05 26.6 35.6 465 29.47 0 0 0 NA
View 722230 Nov 29 2015 9:01:49am 61.34 51 20.66 79 18.05 26.6 35.6 463 29.47 0 0 0 NA
View 722229 Nov 29 2015 9:00:49am 61.34 50 20.66 79 18.05 26.6 35.6 467 29.47 0 0 0 NA
View 722228 Nov 29 2015 8:59:49am 61.34 45 20.66 79 18.05 26.6 35.6 466 29.47 0 0 0 NA
View 722227 Nov 29 2015 8:58:49am 61.34 47 20.48 79 18.05 26.6 35.6 466 29.47 0 0 0 NA
View 722226 Nov 29 2015 8:57:48am 61.16 49 20.66 79 18.05 26.6 35.6 465 29.47 0 0 0 NA
View 722225 Nov 29 2015 8:56:48am 61.34 41 20.48 79 18.05 26.6 35.6 466 29.47 0 0 0 NA
View 722224 Nov 29 2015 8:55:48am 61.34 42 20.48 79 18.05 26.6 35.6 465 29.46 0 0 0 NA
View 722223 Nov 29 2015 8:54:48am 61.34 47 20.48 80 18.05 26.6 35.6 466 29.46 0 0 0 NA
View 722222 Nov 29 2015 8:53:48am 61.34 49 20.48 80 18.05 26.6 35.6 463 29.46 0 0 0 NA
View 722221 Nov 29 2015 8:52:47am 61.16 47 20.3 80 18.05 26.6 35.6 465 29.47 0 0 0 NA
View 722220 Nov 29 2015 8:51:47am 61.16 47 20.3 80 18.05 26.6 35.6 465 29.47 0 0 0 NA
View 722219 Nov 29 2015 8:50:47am 61.16 44 20.3 80 18.05 26.6 35.6 465 29.47 0 0 0 NA
View 722218 Nov 29 2015 8:49:47am 60.98 45 20.12 79 18.05 26.6 35.6 465 29.47 0 0 0 NA
View 722217 Nov 29 2015 8:48:47am 60.8 49 20.12 79 18.05 26.6 35.6 465 29.46 0 0 0 NA
View 722216 Nov 29 2015 8:47:46am 60.8 43 20.12 80 18.05 26.6 35.6 464 29.46 0 0 0 NA
View 722215 Nov 29 2015 8:46:46am 60.62 45 20.12 80 18.05 26.6 35.6 464 29.47 0 0 0 NA
View 722214 Nov 29 2015 8:45:46am 60.44 43 20.12 80 18.05 26.6 35.6 464 29.47 0 0 0 NA
View 722213 Nov 29 2015 8:44:46am 60.44 45 20.12 80 18.05 26.6 35.6 464 29.46 0 0 0 NA
View 722210 Nov 29 2015 8:41:45am 60.26 39 19.94 80 18.05 26.6 35.6 464 29.46 0 0 0 NA
View 722209 Nov 29 2015 8:40:45am 60.26 40 19.94 80 18.05 26.6 35.6 464 29.46 0 0 0 NA
View 722208 Nov 29 2015 8:39:45am 60.26 40 19.94 80 18.05 26.6 35.6 464 29.46 0 0 0 NA
View 722207 Nov 29 2015 8:38:45am 60.08 39 19.76 79 18.05 26.6 35.6 463 29.46 0 0 0 NA
View 722206 Nov 29 2015 8:37:44am 60.08 43 19.76 80 18.05 26.6 35.6 463 29.46 0 0 0 NA
View 722205 Nov 29 2015 8:36:44am 59.9 42 19.76 80 18.05 26.6 35.6 459 29.46 0 0 0 NA
View 722204 Nov 29 2015 8:35:44am 59.9 42 19.76 80 18.05 26.6 35.6 463 29.46 0 0 0 NA
View 722203 Nov 29 2015 8:34:44am 60.08 39 19.58 80 18.05 26.6 35.6 462 29.46 0 0 0 NA
View 722202 Nov 29 2015 8:33:44am 60.08 37 19.58 79 18.05 26.6 35.6 462 29.46 0 0 0 NA
View 722201 Nov 29 2015 8:32:43am 60.08 41 19.58 79 18.05 26.6 35.6 463 29.46 0 0 0 NA
View 722200 Nov 29 2015 8:31:43am 60.08 42 19.58 79 18.05 26.6 35.6 463 29.46 0 0 0 NA
View 722199 Nov 29 2015 8:30:43am 60.08 44 19.58 79 18.05 26.6 35.6 462 29.46 0 0 0 NA
View 722198 Nov 29 2015 8:29:43am 60.08 37 19.58 80 18.05 26.6 35.6 462 29.46 0 0 0 NA
View 722197 Nov 29 2015 8:28:43am 60.26 36 19.58 80 18.05 26.6 35.6 458 29.46 0 0 0 NA
View 722196 Nov 29 2015 8:27:42am 60.44 37 19.4 80 18.05 26.6 35.6 461 29.46 0 0 0 NA
View 722195 Nov 29 2015 8:26:42am 60.44 38 19.4 80 18.05 26.6 35.6 461 29.47 0 0 0 NA
View 722194 Nov 29 2015 8:25:42am 60.62 39 19.4 80 18.05 26.6 35.6 461 29.46 0 0 0 NA
View 722193 Nov 29 2015 8:24:42am 60.8 44 19.4 80 18.05 26.6 35.6 461 29.46 0 0 0 NA